RH
23 23 18 14 14 15 15 14 13 12 12 13 13 14 15 16 16 17 19 20 20 21 23 24 26 28 30 31 32 33 35 36 36 36 36 38 40 43 45 46 47 48 49 52 53 55 57 58 59 60 61 60 60 60 62 62 64 65 66 66 66 65 62 56 50 45 43 41 37 36 33 29 28 25 22 20 17 17 16 16 17 17 18 18 19
26 24 17 13 12 13 14 13 12 13 14 14 14 15 16 16 17 19 21 21 22 24 25 26 28 30 32 33 33 34 35 35 36 36 36 37 40 42 44 46 47 49 52 55 58 59 61 62 64 65 65 64 64 64 65 65 66 67 68 68 66 65 63 58 54 47 42 39 35 36 33 28 29 26 23 22 20 18 16 16 17 17 18 18 19
28 26 22 18 15 15 14 13 14 15 16 17 16 17 19 19 21 22 24 25 25 27 28 29 30 31 32 34 35 35 36 37 37 38 38 39 41 43 45 48 49 52 55 57 59 60 63 66 67 68 69 69 69 68 69 69 69 70 70 70 67 65 63 59 57 51 44 41 36 30 24 24 26 24 26 26 21 18 16 15 17 17 19 19 19
28 27 26 24 21 19 18 17 17 17 16 18 19 21 22 23 25 26 27 28 29 31 32 33 34 35 35 36 38 38 39 39 39 40 41 42 44 45 47 49 52 54 56 58 60 63 66 69 70 72 72 73 72 72 72 72 72 72 72 71 69 66 62 58 59 58 50 42 35 27 23 23 21 21 26 26 20 18 17 15 16 16 17 20 21
28 27 27 27 26 25 24 22 21 19 19 21 22 24 24 26 28 29 30 31 33 36 36 37 38 39 40 41 41 42 43 43 43 43 44 46 47 47 47 48 51 54 56 59 62 65 69 70 73 74 75 76 76 75 75 74 74 74 73 71 68 67 64 60 59 60 56 49 38 28 25 24 24 24 23 20 21 24 21 17 15 15 16 18 21
27 28 29 30 30 30 30 29 28 28 27 26 26 26 26 28 29 30 32 33 33 34 33 35 36 37 40 42 43 44 45 46 47 48 50 52 52 51 50 50 51 53 57 60 63 67 70 71 73 76 78 79 79 79 78 76 75 75 74 71 67 64 62 60 57 55 54 54 46 34 26 23 21 22 21 19 22 24 22 18 15 13 13 15 18
28 29 30 32 32 33 34 34 33 33 32 29 28 29 29 29 30 30 28 27 26 25 25 26 29 32 36 39 42 44 46 48 50 52 53 55 55 55 56 56 56 57 59 62 64 67 70 73 75 77 80 83 83 83 82 80 79 79 78 74 68 62 57 55 52 47 43 44 45 42 33 24 16 14 16 17 19 20 21 24 21 14 10 11 14
30 30 32 32 32 32 32 32 31 31 30 29 29 28 28 27 25 22 20 20 21 21 22 24 27 31 34 37 40 42 45 47 47 48 49 49 51 53 55 58 60 62 65 69 71 72 74 78 81 83 86 88 90 89 89 87 85 84 82 79 73 65 57 54 50 43 37 34 35 35 30 22 16 12 11 13 19 23 21 23 24 20 15 10 9
31 32 32 30 29 29 29 28 28 27 26 26 25 22 20 19 17 17 19 20 22 23 24 27 30 32 35 37 38 40 41 42 42 43 43 44 46 48 50 53 57 59 62 67 72 76 79 82 86 88 89 91 93 93 93 92 91 89 86 81 76 69 61 56 52 45 39 36 30 26 23 19 14 12 9 8 16 25 25 21 21 24 24 18 13
30 30 29 28 27 26 25 24 23 22 21 19 17 16 15 15 16 18 20 22 24 25 26 28 31 33 36 37 38 40 41 42 44 44 45 47 48 49 52 55 57 59 59 61 65 70 74 78 82 85 88 92 93 95 96 94 93 92 89 84 77 71 63 57 55 51 47 43 33 24 22 24 24 23 21 16 18 26 29 25 22 24 26 23 20
26 26 26 25 23 21 20 20 20 18 17 15 14 14 15 17 19 20 22 25 26 28 29 30 33 35 38 40 41 43 45 47 47 48 50 51 53 56 58 60 62 63 62 61 61 62 65 69 75 80 87 93 97 98 97 96 94 92 89 85 79 74 67 62 61 59 53 46 37 26 19 22 30 34 34 32 34 36 33 30 28 28 30 25 19
23 24 23 21 19 18 18 18 18 16 14 15 15 16 17 19 22 24 26 28 29 30 32 33 36 39 41 44 45 46 46 47 47 49 51 53 57 59 59 61 62 63 68 70 67 64 61 61 67 76 85 94 98 100 99 98 96 92 88 83 80 77 74 71 67 63 57 48 41 35 26 21 23 27 31 34 38 39 37 36 32 32 37 31 22
21 20 19 18 17 17 18 18 17 16 15 16 17 19 21 22 25 27 29 31 32 33 35 38 41 44 46 46 45 43 41 40 41 42 45 48 51 52 53 59 64 70 77 78 80 80 70 63 69 78 88 94 97 99 100 99 96 92 88 83 81 79 77 74 69 62 57 52 46 41 34 27 22 24 31 33 33 34 38 40 37 35 39 36 32
21 20 18 17 17 18 19 18 17 17 18 19 20 22 24 26 28 30 31 33 35 38 41 44 47 48 47 44 39 35 29 26 25 25 29 31 32 36 40 48 62 74 77 80 89 88 73 65 70 80 89 93 94 96 96 95 94 91 88 84 82 80 77 73 69 63 60 57 52 44 36 30 26 26 30 30 33 38 42 46 47 45 44 41 39
22 20 19 19 19 20 20 19 18 19 20 21 22 24 26 28 30 31 34 36 39 43 46 48 48 46 41 34 26 19 14 11 11 12 14 15 17 20 23 31 44 59 75 89 87 68 58 62 69 80 91 93 91 90 89 90 91 89 87 85 84 82 79 75 73 71 67 62 57 49 42 36 30 28 28 28 33 40 44 49 53 54 51 45 40
23 21 21 21 21 21 20 19 20 20 21 22 24 26 27 29 32 34 37 41 45 48 49 46 42 35 26 18 11 8 8 8 10 11 12 14 15 17 20 28 36 51 76 87 65 47 56 70 76 85 94 93 89 87 88 92 92 91 90 88 86 83 80 79 78 75 71 66 61 55 50 45 39 34 31 28 29 33 36 42 51 59 61 55 46
23 22 21 22 22 22 21 21 21 21 23 25 26 28 30 33 37 41 44 48 50 49 45 39 29 20 12 8 8 9 9 10 11 12 14 15 16 18 21 28 42 61 73 62 43 44 60 72 78 86 89 88 86 88 92 96 96 95 93 89 87 86 85 83 81 77 73 69 66 62 58 53 48 43 38 34 31 30 30 35 45 56 64 66 61
24 24 24 24 24 24 24 23 24 26 28 28 30 32 36 40 44 48 50 51 49 44 36 26 16 10 9 9 10 11 11 12 13 14 15 15 17 18 19 24 36 49 49 38 39 50 57 65 76 83 84 84 86 91 96 98 98 96 94 92 90 88 87 84 81 78 75 72 70 67 63 59 55 52 48 44 39 35 33 33 38 45 54 63 66
25 26 26 27 27 27 27 28 30 32 32 32 35 38 42 46 49 51 52 50 45 37 25 15 10 10 11 12 12 13 13 14 15 16 17 18 20 20 22 26 32 37 38 42 49 56 61 68 75 78 80 83 86 90 92 93 95 95 93 93 91 87 85 82 81 78 75 72 70 67 64 61 59 56 52 50 46 42 39 35 36 39 45 54 63
26 26 27 28 29 30 31 33 34 33 33 35 38 42 46 50 53 53 52 47 38 26 15 11 11 13 14 15 15 15 15 16 17 19 21 22 25 25 26 30 33 38 44 49 54 59 64 68 70 74 78 83 87 89 90 90 91 91 90 89 87 84 81 78 77 76 72 68 65 63 62 59 58 56 54 53 50 47 43 38 38 36 38 46 56
25 26 28 29 31 33 34 35 34 33 35 38 42 47 51 54 55 53 49 41 29 17 11 12 14 16 17 17 17 17 17 18 19 23 26 27 28 28 29 32 34 39 43 48 54 59 62 65 70 76 81 85 86 86 86 85 85 84 83 82 80 77 75 73 71 71 69 66 63 62 60 58 56 54 52 52 50 49 47 42 40 37 36 44 51
27 28 30 32 33 35 35 34 33 34 38 43 47 52 55 56 55 52 45 34 20 12 12 14 16 17 18 18 18 18 19 19 21 24 26 29 31 31 33 34 36 39 42 45 51 55 59 65 72 75 76 77 77 77 79 78 79 79 77 75 73 71 71 71 71 72 71 70 67 64 61 59 56 53 50 49 47 47 47 43 42 40 37 43 51
29 30 32 35 35 35 34 34 35 38 43 47 52 55 57 57 54 48 38 25 15 12 14 16 17 18 18 18 18 19 20 21 22 24 26 28 32 35 37 38 39 41 43 45 49 54 59 65 68 69 69 69 71 73 75 75 75 75 73 72 70 68 69 71 72 73 72 72 69 64 62 59 55 52 48 47 45 44 44 42 40 40 38 40 45
32 33 35 37 36 35 34 34 38 41 46 51 55 58 58 57 52 43 30 18 13 14 17 18 19 19 19 19 19 20 21 23 24 26 27 27 31 35 40 44 46 47 49 51 53 56 60 62 63 64 66 69 73 74 75 75 75 73 72 71 69 68 68 68 69 70 70 70 68 64 62 58 55 52 48 47 46 44 43 42 39 40 40 38 40
33 34 36 36 34 33 33 36 41 46 52 56 59 60 59 56 49 37 24 16 15 17 19 20 20 21 20 20 20 21 22 24 25 26 27 28 30 34 38 44 49 53 56 57 59 60 61 62 62 65 70 75 78 78 78 77 75 73 71 69 68 67 67 67 67 68 69 68 67 65 62 59 55 52 50 49 49 47 47 46 43 42 42 44 53
32 33 35 34 33 33 36 41 46 52 57 60 61 61 59 55 45 31 20 17 18 20 21 21 21 21 20 20 21 23 24 25 26 27 28 29 30 33 35 39 43 47 51 55 58 60 62 65 68 73 78 82 83 81 80 78 76 74 72 70 69 67 66 67 67 67 68 68 68 66 62 59 56 54 53 52 51 51 50 48 45 43 42 47 58
32 34 35 35 34 37 41 47 53 58 61 62 62 62 60 53 40 26 20 20 21 21 21 22 22 21 20 22 23 24 25 26 27 28 28 29 30 32 33 35 37 38 41 44 48 52 58 64 70 76 82 85 85 83 80 79 77 75 73 70 69 68 68 68 68 67 68 67 66 64 61 58 56 55 54 54 53 52 50 48 47 45 44 44 47
34 36 37 36 37 41 47 52 58 61 63 64 63 63 59 49 35 24 22 23 23 23 23 22 23 22 23 24 25 26 27 28 29 30 30 31 32 32 33 34 35 36 37 38 40 43 49 55 62 69 76 80 80 79 77 77 75 74 73 71 69 69 69 69 69 68 68 68 68 68 66 64 63 62 60 58 55 53 51 49 47 46 46 45 46
37 38 37 37 40 45 51 57 63 65 66 65 65 63 58 45 32 25 25 26 25 25 24 24 24 24 25 26 28 28 29 30 31 32 32 33 34 34 35 36 37 38 38 39 40 41 43 46 51 57 61 65 67 68 68 70 70 70 69 68 68 69 69 69 69 69 72 75 76 75 72 69 69 70 69 66 61 56 53 52 50 51 51 53 55
37 36 36 37 43 49 55 62 67 67 66 66 66 64 56 41 30 26 27 28 26 25 25 25 25 26 26 28 29 30 31 32 33 34 35 36 36 37 38 38 39 40 41 41 42 43 44 44 46 49 51 52 54 56 58 61 64 66 67 67 66 67 70 74 78 80 81 82 79 75 72 71 71 73 73 72 68 63 59 56 56 56 60 68 76
35 34 35 38 45 53 59 66 68 66 67 67 66 63 53 37 28 28 29 29 27 26 26 26 26 27 28 30 31 32 34 34 35 36 37 37 38 39 40 40 41 42 43 44 44 45 46 47 47 48 48 49 50 51 54 56 58 66 81 87 83 81 86 91 95 94 90 88 86 81 75 72 72 72 72 72 73 71 68 66 64 64 69 78 87
32 32 34 40 47 54 60 64 65 66 67 67 66 62 49 34 27 29 30 29 27 27 27 27 28 29 30 32 33 34 36 36 37 38 39 40 41 41 42 42 43 43 44 44 45 46 47 48 49 49 49 50 50 50 54 55 55 68 91 102 99 97 99 100 100 99 98 97 97 95 89 80 74 72 72 72 73 73 73 73 73 74 76 80 84
28 31 34 41 47 53 59 63 65 67 68 68 67 59 43 31 28 29 30 29 28 27 28 28 29 31 32 34 35 36 37 38 39 40 41 42 42 43 43 43 43 43 43 43 44 45 46 47 48 48 48 48 48 50 53 54 55 63 77 87 93 98 100 101 101 100 101 101 101 102 99 90 81 77 75 74 73 73 73 74 75 77 79 82 83
28 32 37 44 51 57 62 65 66 68 69 69 67 54 39 31 30 30 30 29 28 28 29 30 31 33 35 36 38 38 39 40 41 42 43 43 43 43 44 44 43 43 43 44 44 45 45 46 47 47 47 46 46 48 51 52 54 56 58 71 90 100 101 102 102 101 101 101 100 102 101 96 94 92 89 86 81 79 81 82 82 82 83 85 86
31 37 42 48 54 58 62 64 68 70 70 70 65 50 37 33 32 31 30 29 29 29 30 32 34 36 38 39 40 40 41 41 42 43 43 43 44 44 44 45 44 43 44 44 45 45 45 46 47 47 47 46 45 48 51 53 54 53 54 68 87 97 99 101 101 101 103 99 93 91 89 85 87 88 90 94 91 83 83 87 90 91 91 90 89
39 43 47 51 54 58 63 67 70 71 72 71 62 46 35 33 33 32 31 30 30 31 32 34 36 38 40 41 41 41 42 43 43 44 44 44 45 45 45 46 46 45 46 46 46 47 46 46 47 48 48 47 46 48 51 52 53 53 55 62 71 78 84 87 86 87 89 86 79 74 70 67 66 65 68 76 79 75 78 87 92 91 90 88 86
47 48 50 53 57 62 68 70 72 73 73 69 56 41 35 34 33 32 31 31 31 32 34 36 38 40 41 42 42 42 43 44 44 44 45 45 45 45 46 48 48 47 47 47 48 48 47 48 48 48 49 49 47 48 50 52 54 54 56 60 64 68 69 70 73 76 76 73 67 61 60 59 58 58 57 58 63 68 78 90 95 94 91 87 81
47 48 50 54 59 65 70 72 73 74 72 64 50 39 36 35 33 32 32 32 32 33 36 37 39 41 42 43 43 44 44 45 45 45 46 46 46 46 47 49 49 48 47 47 48 46 45 46 47 47 50 51 48 48 50 53 54 54 57 65 73 76 73 71 76 81 79 72 63 57 57 56 53 54 54 52 57 65 71 76 81 85 86 83 75
47 49 52 56 63 68 71 72 74 74 70 59 46 38 36 34 32 32 32 32 33 35 37 39 40 43 44 44 45 46 46 46 46 46 47 46 46 47 47 48 48 47 45 44 45 44 42 42 43 43 46 48 48 47 49 54 56 56 57 62 68 73 72 67 67 71 72 69 62 55 53 52 51 51 50 51 61 71 74 73 73 70 70 72 75
49 52 56 61 67 70 71 73 76 76 69 55 42 37 35 33 32 33 32 32 35 37 39 40 42 44 45 46 47 47 47 48 47 47 47 47 47 47 47 47 45 44 43 42 42 43 41 39 40 41 41 43 45 45 47 52 56 59 59 61 65 72 77 75 72 74 78 82 78 67 55 50 48 48 50 59 74 84 83 82 84 81 75 73 76
54 57 61 66 70 72 74 78 80 77 65 49 40 36 34 33 32 32 32 34 37 39 40 42 44 46 47 48 49 49 49 49 49 48 47 46 46 45 44 44 43 41 41 40 41 43 42 40 41 42 41 41 43 45 47 49 53 59 61 63 66 70 72 75 78 77 77 78 76 69 60 53 51 52 52 57 69 76 72 70 78 85 79 71 69
59 62 66 69 72 75 79 83 82 74 59 46 40 36 33 33 32 31 34 37 39 40 42 44 45 47 48 49 50 50 50 50 49 49 46 44 43 42 41 41 41 41 41 41 42 44 45 44 43 43 43 44 45 47 48 48 50 54 59 62 66 66 65 74 84 83 76 72 70 68 64 59 57 56 51 50 59 70 74 75 79 79 73 71 78
64 67 70 73 75 78 83 87 84 71 54 45 40 35 33 33 31 33 38 39 39 41 44 45 46 47 49 50 50 50 50 50 50 48 45 41 39 38 39 40 42 43 44 45 46 47 49 48 45 44 43 43 45 48 50 52 51 52 55 58 62 64 66 78 94 98 94 92 91 89 88 84 77 71 68 71 76 80 81 82 79 74 74 83 93
70 73 75 77 79 82 88 91 83 65 49 42 38 34 33 32 32 37 41 39 40 43 45 45 46 48 49 50 50 51 50 50 49 46 42 39 38 39 41 42 45 47 48 49 50 52 53 50 46 43 41 40 43 46 47 49 51 53 54 55 58 62 65 75 93 102 102 102 102 101 101 99 94 89 90 92 91 87 86 87 85 86 93 99 101
76 79 80 80 83 87 92 91 76 56 44 39 36 33 32 32 34 40 42 40 42 44 44 45 47 48 49 50 50 49 49 49 47 44 41 40 40 42 45 46 48 50 51 52 54 55 54 51 46 42 40 40 42 42 42 43 48 53 56 56 58 60 62 68 81 88 90 93 95 93 92 94 96 99 101 100 97 95 94 93 93 96 101 102 100
81 82 82 83 87 91 92 83 64 48 40 37 34 32 32 33 38 42 41 41 43 44 44 46 47 48 50 50 49 48 48 46 43 41 41 42 44 47 49 49 51 52 53 55 56 55 54 51 45 42 42 43 42 42 41 42 45 52 58 62 65 66 65 68 72 74 75 77 78 76 76 81 86 89 90 91 91 91 90 86 85 88 92 96 100
84 84 85 88 91 92 86 71 53 42 39 36 34 32 32 35 39 41 41 42 44 44 45 46 47 48 49 49 48 47 44 40 38 40 42 44 46 49 51 51 51 52 53 53 53 52 51 48 45 44 44 44 44 43 43 45 49 55 59 63 65 65 66 70 75 77 78 80 81 80 80 81 82 82 81 80 79 78 78 77 74 73 74 78 83
87 88 89 91 92 88 77 58 43 39 40 37 34 32 34 37 39 40 42 43 43 44 45 46 46 47 46 46 46 43 40 37 37 39 43 46 48 49 49 47 47 50 53 52 51 50 48 47 48 47 46 47 49 49 49 51 53 54 53 56 62 69 75 82 85 86 87 88 89 89 88 88 90 90 89 88 87 84 82 79 75 73 71 70 70
89 90 92 94 91 81 64 45 36 37 39 37 34 34 35 38 39 41 44 44 44 45 45 44 44 43 42 43 42 39 37 37 39 42 44 45 46 48 48 45 43 47 49 48 47 47 45 44 45 45 50 59 61 57 58 62 60 58 61 69 79 88 93 95 93 91 92 92 91 89 87 87 87 86 85 86 88 89 90 88 84 81 80 79 77
91 93 94 93 84 68 50 37 33 34 35 35 34 35 37 39 41 43 44 44 45 45 44 41 40 39 39 40 39 36 37 40 43 45 46 43 42 43 45 44 42 43 44 44 44 43 42 47 56 61 67 77 76 70 76 84 85 84 89 96 98 99 101 101 99 98 99 98 97 96 94 92 91 90 88 86 86 87 89 88 85 82 82 83 82
92 93 92 84 68 51 39 33 31 33 33 34 35 36 38 41 43 44 46 46 46 45 41 37 36 36 37 38 36 36 39 44 47 49 48 46 42 38 38 39 40 42 43 45 46 46 46 54 68 74 74 77 80 84 94 102 102 98 97 98 96 95 94 94 94 98 102 101 100 100 100 99 99 98 97 96 95 94 91 88 86 85 85 85 84
Wind_Speed
10 12 13 11 10 10 9 9 8 7 6 6 6 5 6 6 7 7 7 9 10 11 13 14 15 16 17 19 20 20 22 22 23 23 24 25 26 27 28 29 30 31 31 32 33 33 34 34 34 34 34 34 34 34 34 35 35 35 34 34 34 32 32 31 30 30 31 30 29 31 32 31 30 28 27 27 27 27 26 26 26 27 27 27 27
14 14 13 12 11 12 11 11 11 10 9 9 8 8 8 8 8 8 9 11 12 13 15 16 17 18 19 21 22 23 24 25 26 26 27 28 29 29 30 31 32 34 34 35 35 35 35 35 35 35 35 35 35 35 35 35 35 35 34 34 34 33 32 32 31 29 28 28 28 31 29 22 23 26 27 27 26 25 25 24 24 25 26 25 25
18 16 15 15 14 14 14 14 13 12 11 11 10 9 9 9 9 10 11 13 14 15 16 18 19 20 21 23 24 26 27 28 28 28 29 30 31 31 32 33 34 36 36 36 37 36 36 36 36 36 36 36 36 36 37 36 35 34 34 33 32 33 32 32 32 28 28 29 26 23 18 14 18 21 20 22 24 24 24 24 24 24 24 24 24
21 18 17 17 17 17 17 16 14 13 13 12 11 10 10 10 11 12 13 15 16 17 18 20 21 23 24 25 26 28 29 30 30 30 31 32 33 34 34 35 36 37 38 38 38 38 37 37 37 37 37 37 36 37 37 37 37 35 34 33 32 32 31 31 32 30 28 27 22 18 17 16 15 11 11 20 26 26 24 24 25 25 24 24 24
23 20 19 19 19 19 18 17 16 15 14 14 13 13 13 14 15 15 16 17 18 20 21 22 24 25 27 28 29 30 31 32 32 32 33 34 35 36 37 37 37 38 38 38 38 38 38 37 36 36 36 36 36 36 37 37 38 37 35 34 33 32 32 31 33 32 30 27 23 19 16 13 12 13 16 20 21 21 22 23 24 25 25 25 25
24 22 22 21 20 20 19 18 18 18 18 18 18 17 17 17 18 18 18 19 19 21 22 23 25 26 27 28 29 30 31 32 32 33 33 34 36 37 38 39 39 39 38 38 37 36 36 35 34 33 33 34 35 35 36 37 37 37 36 35 34 33 33 32 32 31 31 30 27 23 18 17 21 22 20 17 16 18 21 25 27 26 26 26 27
25 24 22 20 20 19 19 19 19 20 20 20 20 19 18 18 17 17 16 17 18 20 21 23 24 25 25 26 27 28 29 29 29 30 30 31 34 35 36 37 38 38 38 37 37 36 34 33 33 32 31 32 32 33 34 35 36 37 37 36 35 34 33 32 31 29 29 28 27 26 25 23 25 24 20 17 17 17 17 20 25 27 28 27 27
26 24 21 19 17 16 16 17 18 18 18 18 17 16 15 15 14 14 14 15 17 18 20 21 22 23 23 24 24 25 25 25 25 26 27 28 30 31 32 33 34 35 34 34 34 34 33 31 30 30 29 29 30 30 32 33 34 35 36 36 35 34 33 33 31 28 27 24 22 24 26 24 24 24 22 21 20 20 20 19 21 25 29 30 30
25 21 18 16 16 16 16 16 16 16 15 15 14 13 13 13 13 14 15 15 17 18 19 20 21 21 22 22 22 22 23 24 24 25 26 27 29 31 31 31 32 32 32 31 30 30 30 28 28 27 27 27 28 28 30 31 32 33 35 36 35 34 33 33 32 29 27 25 22 22 23 23 23 24 24 23 22 22 23 22 18 18 23 27 28
20 18 18 18 18 18 17 16 15 14 13 13 12 12 13 13 14 15 16 16 17 18 19 20 21 21 21 22 22 23 24 25 26 28 28 30 32 32 32 31 30 30 30 29 28 27 27 26 26 26 25 25 26 27 29 30 30 30 32 34 34 34 32 32 32 30 28 27 26 23 21 19 19 20 21 21 21 21 22 23 21 19 22 24 24
20 21 20 20 19 18 17 16 15 14 13 13 13 13 14 14 15 16 16 17 18 18 20 21 22 22 22 23 23 24 26 27 29 30 31 32 33 33 32 31 30 30 30 30 29 27 26 26 25 25 25 25 25 26 28 29 28 29 31 33 33 33 32 31 31 30 29 28 27 25 23 20 17 17 16 15 16 18 19 21 21 19 23 28 28
22 22 21 20 19 17 16 16 15 14 15 15 15 14 15 15 16 16 17 17 18 19 20 22 22 23 24 25 26 27 29 30 32 33 33 33 33 32 31 30 29 28 27 27 29 28 26 26 26 25 25 25 24 25 27 27 27 29 30 32 32 32 32 31 30 30 29 28 27 26 24 23 21 20 19 17 17 18 18 20 21 18 20 27 29
23 22 21 19 18 17 17 16 16 16 16 16 15 15 15 16 16 16 17 18 19 21 22 22 23 24 25 27 29 31 32 34 34 34 34 32 31 30 29 28 26 23 21 19 20 22 25 25 24 24 24 25 25 26 26 26 26 28 30 31 31 31 30 30 30 29 28 27 26 25 23 23 23 22 20 20 20 20 20 22 24 21 21 25 26
23 22 20 18 18 18 18 18 18 18 17 15 15 15 15 16 16 17 18 19 20 22 23 23 24 26 28 30 32 33 34 34 33 32 31 30 28 27 26 24 22 19 19 16 14 17 23 24 22 22 22 23 25 25 25 25 25 27 29 30 29 29 29 29 29 29 28 27 25 24 23 23 23 22 21 21 20 20 20 20 21 21 22 24 24
22 21 20 19 19 19 20 20 19 18 16 16 16 15 16 17 18 19 20 21 22 23 24 25 26 29 31 32 33 32 31 29 28 26 26 25 24 23 22 21 20 19 16 13 14 18 21 21 20 20 20 21 22 23 23 23 24 26 27 28 28 28 28 29 28 28 28 27 25 24 24 23 23 23 22 22 20 20 20 19 19 20 22 23 22
22 21 20 20 20 21 21 20 19 17 17 17 17 17 18 19 20 21 21 23 24 25 26 28 30 31 31 30 29 26 24 23 22 21 21 21 20 20 19 19 19 18 14 14 18 20 19 19 19 19 19 19 19 19 20 21 23 24 25 26 27 27 27 28 27 26 26 25 25 24 24 24 23 23 23 23 22 22 22 21 19 18 19 21 21
22 22 21 21 21 21 21 20 19 19 18 18 18 18 19 20 20 21 22 23 25 26 28 30 30 29 27 25 23 21 20 19 19 18 18 18 18 18 18 17 17 15 14 17 20 19 18 18 18 18 18 17 16 16 17 19 21 23 24 25 25 25 25 26 25 24 24 23 23 23 23 23 23 23 24 24 24 24 24 24 22 19 18 19 20
22 22 21 21 22 22 22 21 20 20 19 18 18 19 19 20 20 21 23 24 26 28 29 29 28 25 23 21 19 18 17 16 16 17 17 16 16 16 16 17 16 15 17 20 20 19 18 18 17 16 16 14 13 13 15 17 19 21 23 24 24 24 24 24 24 23 23 22 23 23 23 24 24 24 24 24 24 25 25 24 24 23 21 20 20
23 22 22 22 22 23 22 21 20 18 18 18 18 18 19 20 21 22 24 25 27 28 27 26 24 22 20 18 17 16 15 15 15 15 15 14 14 14 14 14 15 16 18 18 18 17 17 15 14 13 12 10 11 12 14 16 18 20 22 22 23 23 24 23 23 24 24 24 24 24 24 24 24 25 25 25 25 25 26 25 25 25 24 24 23
22 21 21 22 23 23 21 19 18 18 18 19 19 19 20 21 23 24 25 26 27 26 25 23 20 19 17 16 15 15 14 14 14 13 13 13 13 12 12 12 13 14 15 15 14 13 12 11 10 9 9 9 10 12 14 16 17 18 20 20 21 22 23 23 22 23 25 25 24 24 23 23 23 24 25 25 25 25 26 26 26 26 26 26 25
21 21 22 23 23 21 20 19 19 19 20 19 19 20 21 22 24 24 25 26 26 24 22 20 18 17 16 15 14 14 13 13 12 12 12 12 12 11 11 11 11 11 11 11 10 10 9 8 8 8 8 10 11 13 15 16 16 18 19 19 20 21 22 22 22 23 24 24 24 24 24 23 23 23 24 24 25 25 26 27 26 27 28 26 26
20 21 22 22 22 20 20 20 20 21 20 20 20 20 22 23 24 25 26 26 24 22 20 18 17 16 15 14 13 13 12 12 11 11 11 11 11 11 11 10 10 10 10 10 9 8 8 7 7 8 10 12 14 15 16 17 17 18 19 20 21 21 21 21 22 22 22 22 24 24 24 24 24 24 24 24 25 25 25 27 26 26 28 27 26
19 21 22 22 21 21 21 21 21 21 21 21 21 21 22 23 24 25 25 24 23 20 18 16 15 15 14 13 12 11 11 11 11 11 11 11 10 10 10 10 10 10 10 10 9 9 9 9 10 11 13 15 16 17 18 19 19 20 20 20 21 22 21 21 22 22 22 22 24 25 25 25 25 25 25 25 25 26 25 26 27 26 28 28 27
20 21 22 22 23 22 22 23 22 22 22 22 22 23 23 23 23 24 24 23 21 18 16 15 15 14 13 12 11 10 10 10 10 10 10 10 10 11 11 11 11 11 11 11 11 11 12 12 14 15 17 18 19 20 20 20 21 21 21 21 21 22 23 23 23 23 23 24 25 26 26 25 25 25 26 25 25 26 26 26 27 26 27 28 28
21 22 24 25 24 24 24 24 23 23 23 23 23 23 22 22 23 23 22 21 19 16 15 15 14 13 12 11 10 10 9 9 9 10 10 10 10 11 11 12 13 13 13 13 14 15 15 16 18 18 19 20 20 21 22 22 22 22 22 22 22 23 23 23 24 24 24 25 26 27 27 26 26 25 25 25 25 25 26 26 26 26 26 26 24
21 24 26 26 25 25 25 25 24 24 24 23 23 22 21 22 23 22 21 19 17 15 14 13 13 13 12 11 10 9 9 9 10 10 10 10 10 10 11 12 13 14 15 16 17 18 19 19 20 20 21 21 21 22 23 23 23 23 23 23 23 23 24 24 25 25 26 26 27 28 28 27 26 26 25 25 24 24 25 26 26 26 26 26 24
23 25 27 27 26 27 26 26 25 25 24 23 22 21 21 22 22 21 19 18 16 14 13 12 12 12 11 10 10 10 10 10 10 10 10 10 10 10 11 11 13 14 15 16 18 19 20 20 21 21 21 20 21 22 23 23 23 23 23 24 23 24 25 25 27 27 27 28 28 28 28 27 26 26 25 24 24 24 24 25 26 26 26 27 27
25 27 29 28 28 28 27 26 26 25 24 22 21 20 21 21 20 19 18 17 15 14 13 12 12 11 10 10 10 10 10 10 10 11 10 11 11 11 12 12 12 13 14 15 16 17 18 19 21 21 21 21 22 23 23 23 24 24 24 25 25 25 26 27 28 29 28 28 27 26 26 26 25 25 24 23 23 23 24 25 25 26 26 27 28
29 30 30 30 29 28 28 27 26 24 22 21 20 20 20 19 19 18 17 16 15 14 13 12 12 11 10 10 10 10 11 10 11 11 11 11 11 12 12 13 13 14 15 15 16 17 18 18 20 21 21 22 23 23 24 24 24 25 25 26 26 27 28 28 28 28 27 27 27 26 25 25 24 23 23 23 23 23 23 25 25 26 26 27 27
31 31 30 29 28 28 27 26 25 23 21 20 20 19 19 19 19 18 17 16 15 14 13 12 12 11 11 11 10 11 11 11 11 11 11 12 12 12 13 14 14 15 15 16 16 17 18 19 19 21 21 22 23 24 24 24 25 26 26 26 27 27 27 27 27 28 28 29 29 29 27 26 24 24 24 24 24 24 24 25 25 25 26 25 25
31 30 29 28 28 28 27 26 25 23 21 20 19 19 19 19 18 17 16 16 15 14 13 13 12 12 11 11 11 11 11 11 12 12 12 12 13 13 14 15 15 16 16 17 17 17 18 19 20 21 22 23 23 23 24 24 25 25 23 24 26 27 27 28 29 30 31 31 31 32 30 28 26 26 26 25 24 24 23 24 24 25 26 26 26
29 29 28 28 28 28 28 26 24 23 21 20 19 19 19 18 18 17 16 16 16 15 14 13 13 12 12 12 12 11 12 12 12 13 13 13 14 14 15 16 16 17 17 18 18 19 19 20 20 21 22 22 23 23 23 24 24 23 22 22 24 26 26 27 28 29 30 32 33 33 33 32 30 28 28 27 27 26 25 25 25 26 27 27 27
27 27 27 27 28 27 26 25 23 22 21 20 19 19 19 18 18 17 16 16 16 15 15 14 13 13 12 12 12 12 13 13 13 14 14 14 15 15 16 17 18 18 19 19 19 20 20 20 21 22 22 23 23 23 23 23 23 23 22 22 23 25 26 27 28 28 29 30 31 31 33 35 34 31 29 29 29 28 27 27 26 27 27 28 28
25 25 25 26 26 26 25 24 23 22 20 20 19 19 18 17 17 17 17 16 16 15 15 14 13 13 13 13 13 13 13 14 14 15 15 15 16 17 17 18 19 20 20 20 21 21 21 21 22 22 23 23 23 22 23 22 22 23 22 20 22 25 28 30 32 32 31 31 32 33 35 36 34 32 31 31 30 29 28 28 29 29 30 30 30
25 25 25 25 25 25 25 23 22 21 19 20 19 18 17 17 17 17 16 16 16 16 15 14 14 14 14 14 14 14 14 14 15 15 16 16 17 17 18 19 20 21 21 22 22 22 22 22 22 23 24 24 23 22 23 22 22 23 21 20 22 27 30 33 35 35 35 37 37 38 39 38 36 35 34 33 34 33 32 31 32 32 32 32 33
22 21 21 21 22 22 22 21 20 19 19 19 18 17 17 17 17 17 16 16 16 15 15 15 15 14 14 14 14 15 15 15 16 16 17 17 18 18 19 19 20 21 22 23 23 23 23 23 23 24 25 25 24 23 23 23 22 22 22 22 25 29 32 35 37 37 38 40 40 40 39 39 39 38 36 34 34 35 33 33 33 34 34 33 34
16 16 17 18 18 19 19 19 18 18 18 18 18 17 16 16 17 17 16 16 16 15 15 15 15 15 15 15 15 16 16 16 17 18 18 18 19 19 20 20 21 22 23 23 23 24 24 25 24 24 25 26 25 23 23 24 23 22 22 23 26 29 32 34 36 37 37 39 40 40 38 37 37 37 36 35 33 32 32 33 34 35 35 36 36
14 15 16 17 18 18 18 18 18 18 18 18 18 17 16 17 17 17 17 17 16 16 16 16 15 15 15 16 16 16 17 17 18 18 19 19 20 20 21 21 22 23 23 24 24 25 25 25 25 25 25 27 26 24 23 24 24 23 22 24 26 28 32 34 35 36 37 38 40 39 37 36 36 35 34 33 29 28 30 33 34 35 36 37 37
14 16 17 17 17 18 18 18 18 19 18 18 18 17 17 18 18 18 18 18 16 16 16 16 16 15 16 16 16 17 17 18 18 19 20 21 21 21 22 22 23 24 24 24 25 25 25 25 25 25 25 26 27 25 23 24 25 24 23 24 26 29 32 34 35 36 37 37 39 39 37 35 33 31 31 29 26 25 28 31 32 33 36 37 37
16 17 17 18 18 19 19 19 18 18 18 18 18 17 18 18 18 19 19 17 16 16 16 16 16 16 16 16 17 18 18 19 19 20 21 22 22 22 23 23 24 25 25 26 25 26 26 25 25 26 26 26 27 26 24 24 25 25 24 24 26 28 31 33 34 35 35 36 37 37 37 36 33 29 27 27 26 25 27 30 32 34 36 37 36
17 18 18 19 19 19 19 19 18 18 19 18 17 18 18 17 19 20 18 16 16 17 17 16 16 16 16 17 18 18 19 19 20 21 22 22 22 23 24 24 25 25 26 27 26 26 27 27 25 26 26 25 26 26 25 24 25 26 25 25 26 29 31 32 34 35 35 36 37 37 37 37 34 30 27 26 26 27 28 29 31 34 35 34 33
17 18 19 19 19 19 19 19 18 19 19 17 17 18 17 18 20 19 16 16 17 17 16 16 16 16 17 18 18 19 20 20 21 22 22 22 22 23 24 25 25 26 26 27 27 27 28 28 27 26 26 26 25 25 26 25 25 26 26 26 27 30 30 31 32 34 35 36 37 37 37 36 35 33 30 26 25 25 26 27 29 31 31 31 31
18 18 18 19 19 19 19 19 18 19 18 17 18 17 17 19 19 16 15 17 17 16 15 16 16 16 17 18 19 20 20 21 21 22 23 23 22 23 24 25 26 26 27 28 27 27 28 30 29 28 27 26 25 25 25 26 26 26 27 28 28 29 29 29 30 31 32 32 32 32 32 32 32 31 28 24 23 24 25 27 28 28 28 30 31
18 18 18 18 19 19 19 19 19 19 18 18 18 17 18 19 17 14 17 18 16 15 16 16 16 17 18 19 19 20 20 21 22 23 23 23 23 23 24 25 26 27 28 29 28 28 29 31 31 30 28 27 26 26 26 26 27 26 27 27 28 29 29 29 29 31 31 29 29 29 28 27 27 28 26 23 24 25 26 27 27 26 26 28 29
18 19 19 19 20 20 20 20 20 19 18 18 18 18 19 18 15 15 18 18 16 16 16 16 16 18 18 19 20 20 20 21 22 23 24 24 24 24 24 25 26 27 29 29 29 29 30 31 32 32 30 28 26 27 27 26 26 27 27 27 28 28 28 29 30 32 33 32 31 31 31 30 30 30 29 29 30 30 30 30 30 30 30 29 30
20 20 20 20 20 20 21 21 20 19 18 18 18 19 19 16 15 17 18 17 17 17 17 17 18 18 19 20 20 20 21 21 22 22 24 24 24 25 25 26 27 28 29 30 30 30 30 31 31 32 31 29 28 27 27 27 26 26 26 26 26 27 28 29 30 32 34 34 34 34 34 34 34 34 34 35 36 36 35 35 35 35 34 34 33
20 20 20 20 22 22 22 21 20 18 18 19 19 19 17 16 17 18 18 18 18 18 18 18 18 19 20 20 21 21 21 22 22 22 24 25 25 26 26 26 27 28 29 30 31 31 31 31 31 31 31 31 29 28 26 26 25 25 25 26 26 27 27 27 29 30 31 32 32 32 33 34 35 35 35 36 37 38 37 38 38 38 38 39 38
20 20 21 22 23 23 22 20 19 18 18 19 20 19 17 17 18 18 18 19 19 18 18 18 19 20 20 20 21 21 22 22 23 23 24 25 26 27 28 28 27 27 29 31 32 32 32 30 30 30 31 32 32 29 26 25 25 25 26 25 24 23 22 23 24 26 27 27 28 29 30 31 32 33 33 34 34 35 36 36 36 35 36 38 38
20 21 22 23 23 22 21 20 19 17 19 20 20 19 18 18 19 19 19 19 19 19 19 19 19 20 21 20 21 22 22 23 24 24 25 25 26 27 29 30 29 27 27 29 31 33 33 31 30 30 30 32 34 33 29 27 27 26 25 25 25 25 25 26 27 27 27 29 30 30 31 32 32 33 33 34 34 34 34 34 33 31 31 32 33
20 21 23 23 23 22 21 20 19 18 20 21 20 19 19 19 19 20 20 19 19 19 20 20 20 20 20 21 22 22 23 24 25 26 27 27 26 26 27 29 30 29 29 29 30 31 32 32 32 33 33 33 35 36 33 30 28 25 24 25 27 28 28 28 28 27 28 30 31 33 34 35 35 36 36 36 37 37 37 38 37 35 34 34 33
20 22 23 23 23 22 21 20 19 19 20 21 21 20 19 19 19 20 20 20 20 20 21 20 20 20 20 21 22 23 23 25 26 27 28 29 30 29 28 27 28 29 29 30 30 31 31 30 30 32 33 34 34 34 31 29 28 27 26 28 31 32 32 32 31 30 30 30 31 32 34 35 36 37 38 38 38 38 38 38 38 38 37 36 35
Wind_Direction
216 221 230 227 221 219 217 216 214 214 215 219 225 230 236 243 254 263 268 269 273 278 280 281 282 286 288 289 289 288 288 287 287 288 288 288 289 290 290 292 294 296 297 299 299 300 300 300 301 301 301 301 302 302 304 305 306 308 309 309 310 310 309 308 307 308 310 313 314 314 315 314 311 308 305 302 299 296 294 290 285 282 279 277 276
221 223 228 225 220 218 215 213 210 209 212 219 223 228 237 244 256 269 273 276 280 283 286 288 290 291 291 291 291 290 290 290 291 291 291 291 291 292 294 295 296 297 298 298 298 298 298 298 298 298 299 299 300 300 301 302 302 304 305 306 307 307 307 305 305 307 308 309 310 312 316 317 311 310 307 303 302 300 295 289 283 280 277 275 274
226 226 228 228 227 224 220 215 214 216 219 223 227 234 245 254 264 271 274 276 280 282 285 288 289 288 287 287 287 287 288 288 289 290 291 291 292 293 294 294 294 294 294 294 294 294 294 294 295 295 296 297 298 299 299 300 300 301 302 303 303 303 304 302 302 304 303 305 309 310 313 310 304 305 303 302 305 303 296 290 285 281 278 275 271
230 228 227 229 230 230 228 226 226 228 227 231 237 244 251 258 263 266 269 272 275 278 279 280 280 280 280 280 280 281 282 283 285 285 286 287 289 290 289 289 289 290 290 291 291 292 292 293 294 295 295 295 296 297 298 298 298 299 299 300 299 298 298 297 298 299 298 302 303 300 301 298 296 294 288 298 304 300 293 287 285 282 279 277 272
232 229 228 229 230 232 234 234 236 237 238 243 246 249 250 254 259 261 264 267 269 271 271 271 271 272 272 273 275 276 277 279 280 281 282 283 284 283 282 282 283 284 285 287 288 290 291 291 292 293 294 294 295 295 296 296 296 298 298 297 296 295 294 292 293 294 294 294 291 292 296 290 283 287 293 298 297 293 290 285 283 282 280 277 273
233 231 230 230 231 233 234 235 237 239 242 245 247 249 251 254 258 262 266 269 271 272 272 272 272 272 272 272 274 275 276 277 278 279 280 281 280 280 280 280 280 281 282 284 285 286 288 289 289 290 291 292 293 293 293 294 294 296 296 296 295 293 291 289 289 290 290 288 285 282 279 273 275 283 291 295 288 285 287 285 282 280 278 276 273
234 234 234 235 234 233 231 230 232 235 238 242 246 249 251 254 259 263 268 272 276 278 279 279 278 278 276 276 276 276 277 279 280 280 281 282 282 283 284 284 284 284 284 284 285 285 286 287 287 287 288 289 290 291 292 292 293 294 294 293 293 291 289 288 287 286 286 287 285 280 276 272 273 275 278 282 285 284 281 282 284 282 279 275 271
236 239 241 237 227 219 218 220 223 229 233 236 240 244 247 252 258 264 270 276 281 284 286 285 283 282 280 280 280 281 282 284 286 287 288 289 290 291 290 289 289 288 287 287 286 286 286 286 287 286 287 289 290 290 291 290 291 292 292 291 290 289 287 285 285 283 283 284 283 281 280 276 274 274 272 270 272 276 273 273 280 283 282 277 272
236 235 227 212 199 196 202 208 213 218 222 227 233 240 249 257 263 269 274 280 286 290 291 289 286 285 284 283 284 286 288 290 292 294 295 297 296 296 295 293 292 291 291 290 289 289 288 288 287 287 288 289 289 290 289 289 289 290 289 288 287 286 284 283 282 280 280 280 278 280 282 280 277 276 273 269 264 266 271 271 272 276 279 280 277
218 204 191 185 185 192 199 204 208 212 218 228 238 248 256 263 267 271 275 282 287 290 291 290 288 288 288 288 290 293 295 295 297 298 299 300 299 298 297 296 295 295 295 294 293 292 291 289 288 287 288 288 288 289 289 289 290 289 287 285 284 282 281 280 279 278 278 278 276 277 279 280 279 276 274 273 267 263 265 269 270 268 271 275 276
185 178 178 181 187 195 203 208 211 218 226 235 244 251 258 262 265 269 273 278 283 285 287 287 287 288 289 291 294 296 297 298 298 298 298 298 297 296 296 297 297 298 298 297 296 293 291 290 288 287 287 288 289 291 291 291 290 288 285 283 281 280 278 277 277 277 277 277 275 274 275 274 271 269 268 268 265 263 264 269 271 270 270 272 273
173 176 180 184 191 199 206 212 218 226 233 238 246 253 259 263 265 269 272 277 281 284 286 285 285 287 289 292 295 296 298 298 297 297 296 295 295 295 295 296 297 298 299 299 299 296 292 290 288 288 288 289 292 293 293 292 290 286 283 281 279 278 277 276 277 277 277 277 276 276 276 274 271 270 268 265 261 262 266 270 272 273 274 275 277
176 181 185 189 197 204 210 217 224 230 235 241 249 256 261 264 267 270 275 279 283 285 285 285 286 288 291 294 296 297 297 296 295 294 294 294 294 295 296 295 295 295 291 291 294 293 294 294 292 290 290 291 293 294 294 292 288 283 279 278 277 277 277 277 277 278 278 278 278 278 278 277 276 275 272 270 268 267 269 271 274 275 275 277 279
180 185 190 195 202 209 215 220 225 231 236 244 252 259 264 268 271 275 278 281 284 285 285 286 289 291 294 295 296 296 295 293 293 292 292 292 293 293 293 292 290 288 286 284 280 283 294 299 296 293 292 292 293 295 295 292 287 282 278 276 276 276 277 278 278 278 278 278 279 280 280 279 279 279 276 275 274 273 271 272 278 280 277 278 280
185 188 194 201 207 213 218 222 228 233 241 250 257 265 270 273 276 278 280 283 284 286 287 290 293 295 296 296 295 295 293 292 291 291 291 291 292 292 292 292 290 288 287 284 279 284 294 298 296 294 293 293 294 296 295 291 285 281 277 276 275 276 277 279 280 280 279 279 280 281 282 282 282 282 281 280 278 274 272 272 276 281 283 282 282
188 193 199 205 211 217 222 226 233 240 248 255 261 267 272 274 276 278 281 284 286 289 293 296 298 299 298 297 296 295 293 293 292 292 292 292 294 295 296 295 293 292 287 280 285 293 296 295 294 293 292 292 293 293 292 286 282 279 277 275 276 277 278 279 280 281 281 282 283 284 284 284 285 284 284 283 281 278 276 274 272 273 280 284 285
193 200 206 212 217 222 226 231 237 244 249 255 261 266 269 271 275 279 283 286 291 295 300 302 302 301 300 298 296 295 294 294 294 294 295 295 296 296 296 294 292 289 284 284 291 296 294 292 291 290 290 290 290 289 286 282 280 278 275 275 275 276 277 279 280 281 283 285 287 287 287 287 287 286 286 286 284 282 279 277 274 269 268 274 281
199 205 210 217 222 226 229 234 239 243 249 255 261 265 268 273 278 283 287 292 298 302 304 305 304 302 300 298 297 296 297 297 297 298 297 296 296 294 294 293 290 287 287 291 294 294 293 292 289 287 287 286 286 285 283 281 278 276 275 275 275 276 277 279 281 283 284 286 287 288 289 289 289 287 287 286 284 284 282 279 277 272 268 265 269
202 208 214 220 224 228 231 234 238 243 251 258 263 269 274 280 285 289 294 298 303 306 307 306 303 300 298 297 298 299 300 301 302 302 302 301 301 300 300 298 294 292 292 293 293 293 294 293 289 287 289 290 291 289 286 282 278 275 274 275 275 277 278 281 283 285 285 286 285 286 287 287 288 288 287 287 285 284 283 281 279 275 272 268 265
206 212 220 224 227 230 231 235 242 250 258 263 269 275 281 286 290 294 298 302 306 308 307 304 300 298 297 297 298 299 301 303 304 306 308 308 308 308 308 305 302 299 297 296 296 296 297 297 299 303 306 305 299 292 286 281 278 276 275 275 275 277 279 280 282 283 284 286 286 286 286 286 287 287 287 287 287 285 283 282 280 278 275 272 269
213 219 224 226 228 230 233 239 249 255 261 265 271 278 283 288 292 296 301 306 308 308 305 301 297 297 297 297 299 301 303 305 306 309 311 312 311 310 310 309 309 308 307 308 309 308 310 312 318 320 314 305 295 289 286 282 279 277 276 275 274 275 277 279 279 280 283 286 287 289 290 290 290 288 287 286 285 284 284 282 281 279 277 274 272
219 224 227 227 227 230 236 244 251 256 261 266 272 278 284 288 292 299 304 307 308 306 301 297 294 294 295 296 299 301 304 305 306 308 309 310 312 312 312 311 312 313 314 315 315 314 316 317 314 307 297 292 288 286 284 283 280 279 277 276 276 275 276 276 277 278 281 284 288 291 294 295 295 293 290 287 284 282 281 281 280 279 278 276 272
224 228 228 226 228 233 240 246 251 256 260 267 273 278 283 288 294 301 305 306 306 303 298 293 291 291 292 294 297 299 301 303 304 305 305 306 308 311 312 310 309 309 307 306 307 305 304 300 294 290 286 285 284 283 281 280 279 278 277 277 277 277 276 276 276 278 280 283 288 291 294 295 295 294 291 287 284 281 280 280 280 278 277 276 273
226 228 226 226 230 237 243 248 251 255 261 266 272 277 282 289 297 302 305 305 303 298 293 291 290 289 289 290 293 294 296 299 301 302 302 303 303 303 303 302 301 301 299 297 296 293 289 286 283 282 281 280 279 279 278 277 277 277 277 277 277 278 278 278 278 279 281 283 286 290 292 293 292 289 287 285 283 282 281 280 280 279 277 276 275
227 228 227 228 234 240 245 248 250 254 259 264 271 276 283 291 299 303 304 302 298 293 288 286 286 285 286 286 288 289 291 293 294 296 298 299 299 296 293 290 288 287 286 286 285 283 280 279 279 278 277 276 276 277 277 277 278 278 279 279 278 277 278 279 279 279 281 283 286 289 291 292 290 286 283 282 280 280 280 278 278 278 277 276 274
233 233 230 231 236 241 244 246 249 253 258 264 271 277 285 295 300 303 302 296 292 287 282 279 279 279 280 282 285 287 288 291 292 294 296 297 297 295 292 289 285 282 281 280 280 280 280 279 279 278 276 275 275 276 277 278 279 279 279 279 278 278 278 278 278 279 281 283 286 288 289 289 287 284 282 280 278 276 275 275 274 274 274 273 271
240 235 232 233 236 240 242 245 248 253 259 265 272 279 288 297 301 302 297 290 287 282 276 273 273 274 276 278 281 284 287 290 292 294 296 297 296 295 293 290 288 286 283 281 280 280 280 279 278 277 276 274 274 274 275 276 277 278 278 278 277 277 277 278 279 281 282 284 285 286 286 285 283 282 281 279 277 274 273 271 271 271 270 270 269
239 233 231 233 236 239 242 245 248 253 260 266 272 280 290 298 300 297 291 286 283 279 274 271 271 272 274 276 278 281 284 287 290 292 294 295 295 295 294 292 289 287 285 283 282 281 280 279 277 276 274 273 273 273 275 276 276 276 277 278 278 278 278 279 280 281 283 283 283 284 283 282 281 280 279 277 275 273 272 270 269 269 268 268 268
235 231 231 234 237 240 242 245 249 254 260 266 273 282 292 298 297 292 286 281 278 276 272 271 271 271 272 274 276 279 282 285 288 290 292 293 294 293 293 291 289 287 285 284 283 282 281 279 277 276 274 273 274 274 275 276 276 276 277 278 278 278 279 280 281 283 283 282 282 282 281 281 278 276 276 275 274 272 271 270 270 270 269 267 267
234 231 233 236 238 241 244 246 250 255 261 267 275 285 293 296 292 287 281 276 273 270 268 268 269 269 270 272 274 277 281 284 286 289 290 290 290 290 289 289 288 286 285 284 283 281 280 279 278 276 276 276 276 276 276 276 277 278 280 281 282 282 283 284 284 284 284 283 282 282 281 279 277 276 274 273 273 273 271 270 270 269 268 267 266
234 232 234 238 239 241 244 247 252 257 262 269 277 286 291 291 286 280 275 271 269 266 264 265 266 267 270 272 274 276 280 282 284 286 287 287 288 288 287 287 286 286 285 284 283 281 279 278 278 277 277 277 277 277 277 277 277 278 277 279 283 286 287 287 285 285 285 285 284 283 281 278 274 274 275 274 273 272 270 270 269 268 267 267 267
232 234 236 239 240 242 245 249 253 258 263 270 278 284 287 285 279 274 269 266 264 262 262 264 265 267 269 271 274 276 278 281 284 285 286 287 288 288 287 287 286 285 285 284 283 282 280 279 278 278 277 278 278 278 277 277 278 276 272 270 273 277 280 281 281 282 283 284 283 284 283 281 276 273 272 272 271 270 270 270 269 268 267 267 268
235 239 242 243 243 245 248 250 254 258 263 270 277 282 283 278 271 268 264 261 260 260 261 263 264 266 269 270 273 276 278 281 283 285 287 287 288 288 287 287 287 286 285 285 284 282 281 280 279 279 279 279 279 279 278 277 277 275 272 270 269 270 270 270 271 272 274 277 278 279 280 282 282 279 275 272 271 270 270 270 268 266 264 264 264
241 245 246 246 245 245 247 248 252 257 263 270 276 279 277 270 264 262 259 256 257 258 259 262 263 265 267 270 273 275 277 280 283 285 286 287 288 288 287 287 287 287 286 286 285 284 283 282 281 281 281 281 282 282 280 278 277 275 274 271 269 269 268 267 268 269 268 269 270 272 276 279 281 281 280 278 275 274 272 270 268 267 266 266 265
244 246 246 244 243 244 245 247 251 257 263 270 275 276 271 265 261 258 254 253 254 256 258 260 262 264 266 269 272 275 278 281 282 284 286 287 287 287 287 287 287 287 287 287 286 286 285 284 283 283 283 283 284 283 281 279 277 276 275 270 264 263 265 265 267 268 268 268 269 271 274 276 276 277 277 277 278 280 279 274 271 269 268 268 268
247 248 247 245 245 245 246 248 252 258 265 272 275 273 268 263 259 255 253 252 253 255 258 259 260 263 266 269 272 276 279 282 283 284 286 287 288 288 288 288 287 287 288 287 287 287 286 286 285 284 284 284 284 283 281 280 278 276 274 268 262 261 262 263 265 266 267 269 271 272 273 275 275 276 275 274 276 280 280 277 274 273 272 271 269
247 249 248 246 244 243 245 249 255 262 269 274 275 271 265 261 257 254 252 251 252 253 256 257 260 263 266 270 273 277 280 282 283 285 287 288 289 289 289 289 288 288 288 288 288 287 287 288 287 286 286 286 285 284 282 280 279 277 273 269 266 265 264 265 267 268 268 270 272 274 274 274 274 275 275 274 274 275 274 272 272 274 274 274 274
255 254 251 247 245 245 248 253 260 267 272 274 272 267 261 257 254 252 250 249 250 252 254 256 260 263 266 270 273 277 279 281 283 286 287 288 289 290 290 289 289 289 289 289 289 289 288 289 289 288 287 287 287 286 283 281 279 277 273 269 268 267 266 267 268 269 270 271 274 276 276 275 275 275 275 275 274 271 269 268 269 270 272 273 276
265 261 256 252 250 249 252 256 262 269 272 271 267 261 256 252 250 249 249 249 250 251 253 257 260 263 267 270 273 277 280 282 284 286 287 289 290 291 291 291 290 291 291 290 290 290 290 290 290 290 288 287 288 287 285 282 280 277 272 268 266 266 267 268 269 270 272 274 275 277 277 277 277 277 278 277 273 266 265 266 267 268 269 269 271
265 259 255 252 250 251 255 260 265 270 269 266 262 256 251 249 247 246 247 248 249 250 253 256 260 264 268 272 275 278 281 284 286 287 289 290 292 292 292 292 292 292 292 293 292 292 292 291 291 291 289 289 289 289 287 284 281 278 273 269 266 266 266 268 270 271 272 274 275 278 280 282 282 280 277 275 269 263 262 264 265 266 266 268 270
261 256 252 251 252 254 258 262 266 268 266 262 257 252 249 246 244 246 248 248 247 249 252 257 262 267 271 275 278 280 283 285 287 288 290 291 292 293 293 293 293 293 293 293 294 293 293 293 292 291 291 291 291 290 288 284 280 278 274 269 265 264 264 266 268 269 270 272 273 275 278 281 282 280 274 269 266 264 263 263 263 264 267 271 273
258 255 252 252 254 256 259 263 266 267 265 261 255 251 249 246 245 247 248 246 247 250 254 259 265 270 274 276 279 281 284 286 287 289 290 292 293 293 293 293 293 293 293 293 294 294 293 293 293 292 292 293 292 290 288 285 280 277 274 270 266 265 266 266 267 269 271 273 274 277 279 280 281 281 279 274 269 266 263 261 261 262 267 271 272
262 258 256 256 257 259 262 265 266 266 264 259 255 252 249 247 247 247 246 246 249 252 256 261 267 271 274 276 278 281 284 286 288 289 290 292 293 292 292 293 293 294 294 293 294 295 294 294 295 295 295 295 293 290 287 284 281 278 275 273 270 268 268 265 264 266 268 270 272 275 277 278 280 283 284 279 272 266 262 260 261 262 267 269 268
265 262 260 260 260 262 264 265 265 266 263 258 256 253 250 248 248 246 245 249 253 256 260 265 270 272 275 277 279 282 285 287 288 290 291 292 292 292 292 294 294 294 294 294 295 295 295 295 297 297 297 297 295 291 286 284 283 281 278 275 273 271 268 264 261 261 263 263 264 266 267 270 276 282 283 277 271 266 262 261 261 261 264 266 265
265 262 261 261 263 264 264 265 266 265 261 257 255 252 250 250 248 245 248 254 258 260 265 270 272 274 277 279 282 284 287 288 288 289 291 292 292 292 293 294 294 294 295 295 296 295 295 296 297 298 299 298 295 291 288 287 286 284 281 278 275 272 269 265 261 260 260 260 261 265 268 271 274 275 273 270 267 262 257 256 255 254 255 259 263
262 261 262 263 263 263 264 266 267 264 259 256 254 252 251 250 247 247 252 258 262 265 269 272 274 277 279 281 284 286 286 287 288 289 290 291 292 293 293 293 294 295 295 295 296 296 296 297 297 299 299 298 295 292 291 290 289 286 283 279 276 273 272 270 268 267 268 267 268 270 271 270 269 266 264 264 263 261 257 255 253 253 255 257 261
263 263 263 261 261 264 266 268 267 263 258 256 253 252 252 249 248 251 256 261 264 268 272 274 275 279 281 282 285 286 285 286 287 287 289 290 292 293 293 293 294 295 296 296 296 296 297 298 300 300 298 296 294 292 290 289 288 285 282 280 278 276 275 273 272 273 274 274 274 274 273 271 270 268 266 264 263 262 261 258 256 256 257 258 260
262 260 259 260 263 267 269 269 265 260 256 255 253 253 252 249 251 255 258 262 266 270 273 276 277 279 282 284 285 285 285 286 287 287 288 290 292 293 293 294 295 297 297 297 298 298 299 300 300 299 298 298 297 295 295 295 292 289 287 287 286 283 279 275 273 274 275 276 274 273 271 270 268 267 267 266 266 265 265 264 262 260 259 260 261
260 260 261 263 267 269 269 267 263 256 253 254 254 253 253 252 253 257 259 263 268 272 274 276 279 280 283 285 285 285 286 287 287 288 288 288 290 292 293 295 296 296 295 295 296 297 299 302 302 300 301 301 300 300 302 302 299 297 296 296 295 294 291 287 283 282 281 279 277 275 273 271 270 269 269 269 269 269 269 268 267 264 262 261 261
260 261 263 265 268 269 268 264 260 254 252 253 254 253 253 253 255 257 261 265 269 272 274 277 280 282 284 284 284 285 287 288 289 290 290 289 290 290 292 296 299 300 299 298 298 299 302 305 304 303 303 301 299 302 305 303 301 301 299 293 288 286 285 284 284 284 281 278 276 275 273 272 272 271 271 271 271 271 271 271 270 268 266 264 263
262 263 265 268 269 268 265 261 257 253 251 251 252 252 253 255 256 259 262 266 269 272 276 279 282 283 284 284 284 286 287 289 291 292 293 295 295 295 294 296 298 300 301 301 301 301 302 302 298 297 297 296 295 297 298 296 293 290 283 277 273 272 272 272 275 277 275 272 271 271 272 273 272 271 271 271 271 271 271 272 272 272 270 268 267